Printer-friendly version

IAU Minor Planet Center

Minor Planet Center

MPEC 2006-S25 : 2006 SG7

The following Minor Planet Electronic Circular may be linked-to from your own Web pages, but must not otherwise be redistributed electronically.


Read MPEC 2006-S24 Read MPEC 2006-S26


M.P.E.C. 2006-S25                                Issued 2006 Sept. 19, 10:54 UT

     The Minor Planet Electronic Circulars contain information on unusual
         minor planets and routine data on comets.  They are published
   on behalf of Commission 20 of the International Astronomical Union by the
          Minor Planet Center, Smithsonian Astrophysical Observatory,
                          Cambridge, MA 02138, U.S.A.

                  Supported in part by the Brinson Foundation
                  Supported in part by the TABASGO Foundation
             Prepared using the Tamkin Foundation Computer Network

                              MPC@CFA.HARVARD.EDU
          URL http://cfa-www.harvard.edu/iau/mpc.html  ISSN 1523-6714

                                   2006 SG7

Observations:
     K06S07G* C2006 09 18.27252 00 48 20.97 +03 06 38.2          20.6 V ES025691
     K06S07G  C2006 09 18.28243 00 48 18.97 +03 06 33.7          20.9 V ES025691
     K06S07G  C2006 09 18.29234 00 48 16.94 +03 06 29.0          20.5 V ES025691
     K06S07G tC2006 09 18.33443 00 48 08.32 +03 06 09.1          21.4 V ES025291
     K06S07G tC2006 09 18.33856 00 48 07.50 +03 06 07.1          21.2 V ES025291
     K06S07G tC2006 09 18.34231 00 48 06.71 +03 06 06.1          21.1 V ES025291
     K06S07G  C2006 09 19.31020 00 44 51.91 +02 57 54.6          20.8 R ES025734
     K06S07G  C2006 09 19.31533 00 44 50.67 +02 57 52.0          20.9 R ES025734
     K06S07G  C2006 09 19.31730 00 44 50.92 +02 57 54.2          20.1 V ES025703
     K06S07G  C2006 09 19.32119 00 44 49.38 +02 57 48.5          21.1 R ES025734
     K06S07G  C2006 09 19.32332 00 44 49.51 +02 57 51.4          20.9 R ES025651
     K06S07G  C2006 09 19.32624 00 44 48.87 +02 57 50.7          21.0 R ES025651
     K06S07G  C2006 09 19.32770 00 44 48.54 +02 57 48.9          20.9 R ES025651
     K06S07G  C2006 09 19.34298 00 44 45.11 +02 57 41.3          20.8 V ES025291
     K06S07G  C2006 09 19.34376 00 44 44.73 +02 57 41.4          19.9 V ES025703
     K06S07G  C2006 09 19.34789 00 44 43.97 +02 57 38.5          20.8 V ES025291
     K06S07G  C2006 09 19.35206 00 44 43.04 +02 57 36.1          20.7 V ES025291

Observer details:
291 LPL/Spacewatch II.  Observers R. S. McMillan, J. V. Scotti.  1.8-m f/2.7
    reflector + CCD.
651 Grasslands Observatory, Tucson.  Observer J. E. McGaha.  0.62-m f/5.1
    Newtonian reflector + CCD.
691 Steward Observatory, Kitt Peak.  Observer R. S. McMillan.  0.9-m f/3
    reflector + CCD.
703 Catalina Sky Survey.  Observer A. R. Gibbs.  Measurers E. C. Beshore,
    E. J. Christensen, G. J. Garradd, A. R. Gibbs, A. D. Grauer, R. E. Hill,
    R. A. Kowalski, S. M. Larson, R. H. McNaught.  0.68-m Schmidt + CCD.
734 Farpoint Observatory.  Observer G. Hug.  0.7-m reflector + CCD.

Orbital elements:
2006 SG7                                                 Earth MOID = 0.0161 AU
Epoch 2006 Sept. 22.0 TT = JDT 2454000.5                MPC
M 293.51832              (2000.0)            P               Q
n   0.88867197     Peri.  131.99843     -0.69671340     -0.71734252
a   1.0714578      Node     2.17343     +0.63083771     -0.61479765
e   0.5921033      Incl.    4.81680     +0.34151753     -0.32778583
P   1.11           H   23.2           G   0.15           U   9
Residuals in seconds of arc
060918 691  0.3+  0.1+    060919 734  0.5+  0.5+    060919 651  0.5+  0.4-
060918 691  0.4+  0.2+    060919 734  0.7-  0.6+    060919 291  0.5+  0.3+
060918 691  0.2+  0.2+    060919 703  0.7+  0.2-    060919 703  1.9-  1.2+
060918 291  0.1-  0.0     060919 734  0.2-  0.3+    060919 291  0.2+  0.2+
060918 291  0.3+  0.0     060919 651  0.1+  0.2-    060919 291  0.5+  0.0
060918 291  0.0   0.8+    060919 651  0.4+  0.6+

Ephemeris:
2006 SG7                 a,e,i = 1.07, 0.59, 5                   q = 0.4370
Date    TT    R. A. (2000) Decl.     Delta      r     Elong.  Phase     V
2006 09 12    01 02.81   +03 40.8    0.282    1.264   153.0    21.2    22.0
2006 09 14    00 59.19   +03 32.9    0.260    1.248   155.8    19.3    21.7
2006 09 16    00 54.71   +03 22.5    0.239    1.232   158.9    17.1    21.5
2006 09 18    00 49.18   +03 09.1    0.219    1.215   162.2    14.6    21.1
2006 09 20    00 42.34   +02 51.9    0.199    1.198   165.9    11.8    20.8
2006 09 22    00 33.84   +02 30.1    0.179    1.181   170.0     8.5    20.4
2006 09 24    00 23.20   +02 02.3    0.160    1.163   174.6     4.7    20.0
2006 09 26    00 09.71   +01 26.5    0.142    1.145   179.6     0.3    19.3
2006 09 28    23 52.41   +00 40.0    0.125    1.126   173.7     5.6    19.4
2006 09 30    23 29.89   -00 20.7    0.109    1.107   166.1    12.6    19.3
2006 10 02    23 00.23   -01 40.0    0.0942   1.088   156.6    21.4    19.3
2006 10 04    22 21.17   -03 21.3    0.0822   1.069   144.8    32.6    19.3
2006 10 06    21 30.99   -05 21.7    0.0733   1.049   130.2    46.7    19.4
2006 10 08    20 30.94   -07 24.1    0.0689   1.028   113.3    63.2    19.7
2006 10 10    19 27.34   -08 59.8    0.0696   1.008    95.5    80.5    20.2
2006 10 12    18 28.87   -09 51.6    0.0752   0.987    79.2    96.5    21.0

Timothy B. Spahr             (C) Copyright 2006 MPC           M.P.E.C. 2006-S25

Read MPEC 2006-S24 Read MPEC 2006-S26


Our Web policy. Index to the CBAT/MPC/ICQ pages.


Valid HTML 4.01!